Location: Arbon
(43.0005°N, 0.7472°E)
Time: 17:09:00
(UTC+00:00)

MOZ.5/SAFIR/RUBIN 5/SL-8 - Pass Details

Date: 07 August 2020
Orbit: 677 x 706 km, 98.1° (Epoch: 22 September)

Event Time Altitude Azimuth Distance (km) Brightness Sun altitude
Exits shadow 01:36:57 60° 318° (NW) 810 4.1 -26.9°
Drops below altitude 10° 01:40:57 10° 343° (NNW) 2,177 6.9 -26.5°
Sets 01:43:13 0° 346° (NNW) 3,096 7.8 -26.4°
